• In Netherlands
  • List of Countries
  • For 7 days
  • Water Temperature
  • Satellite Maps
  • Weather Map
  • Weather Widgets
  • user-avatar
    Login

    Hourly Weather Kapan

    Today, 23 July, Sunday

    Time Temperature Precipitation Wind Pressure Humidity
    00:00 +25°C° 0 mm 2 mps 683 mmHg 44%
    01:00 +25°C° 0 mm 2 mps 683 mmHg 44%
    02:00 +25°C° 0 mm 2 mps 683 mmHg 44%
    03:00 +25°C° 0 mm 2 mps 682 mmHg 43%
    04:00 +25°C° 0 mm 1 mps 683 mmHg 42%
    05:00 +26°C° 0 mm 1 mps 683 mmHg 41%
    06:00 +26°C° 0 mm 1 mps 683 mmHg 39%
    07:00 +28°C° 0 mm 2 mps 683 mmHg 35%
    08:00 +30°C° 0 mm 2 mps 683 mmHg 30%
    09:00 +32°C° 0 mm 2 mps 683 mmHg 26%
    10:00 +35°C° 0 mm 3 mps 683 mmHg 24%
    11:00 +36°C° 0 mm 3 mps 683 mmHg 22%
    12:00 +37°C° 0 mm 3 mps 682 mmHg 20%
    13:00 +37°C° 0 mm 4 mps 682 mmHg 19%
    14:00 +38°C° 0 mm 4 mps 682 mmHg 19%
    15:00 +38°C° 0 mm 4 mps 681 mmHg 19%
    16:00 +37°C° 0 mm 4 mps 681 mmHg 20%
    17:00 +36°C° 0 mm 4 mps 680 mmHg 22%
    18:00 +34°C° 0 mm 4 mps 680 mmHg 24%
    19:00 +31°C° 0 mm 3 mps 680 mmHg 27%
    20:00 +29°C° 0 mm 3 mps 680 mmHg 30%
    21:00 +27°C° 0 mm 3 mps 680 mmHg 33%
    22:00 +26°C° 0 mm 3 mps 681 mmHg 34%
    23:00 +26°C° 0 mm 3 mps 681 mmHg 36%

    Tomorrow, 24 July, Monday

    Time Temperature Precipitation Wind Pressure Humidity
    00:00 +25°C° 0 mm 2 mps 681 mmHg 37%
    01:00 +25°C° 0 mm 2 mps 681 mmHg 38%
    02:00 +24°C° 0 mm 2 mps 681 mmHg 40%
    03:00 +23°C° 0 mm 2 mps 681 mmHg 42%
    04:00 +24°C° 0 mm 2 mps 681 mmHg 42%
    05:00 +24°C° 0 mm 2 mps 682 mmHg 42%
    06:00 +24°C° 0 mm 2 mps 682 mmHg 42%
    07:00 +26°C° 0 mm 3 mps 682 mmHg 39%
    08:00 +28°C° 0 mm 3 mps 682 mmHg 36%
    09:00 +29°C° 0 mm 4 mps 682 mmHg 33%
    10:00 +32°C° 0 mm 4 mps 682 mmHg 32%
    11:00 +33°C° 0 mm 4 mps 682 mmHg 30%
    12:00 +34°C° 0 mm 4 mps 682 mmHg 28%
    13:00 +34°C° 0 mm 5 mps 681 mmHg 29%
    14:00 +35°C° 0 mm 5 mps 681 mmHg 30%
    15:00 +35°C° 0 mm 5 mps 680 mmHg 30%
    16:00 +34°C° 0 mm 5 mps 680 mmHg 34%
    17:00 +33°C° 0 mm 5 mps 680 mmHg 38%
    18:00 +30°C° 0 mm 5 mps 679 mmHg 41%
    19:00 +28°C° 0 mm 4 mps 680 mmHg 48%
    20:00 +27°C° 0 mm 3 mps 680 mmHg 55%
    21:00 +25°C° 0 mm 2 mps 680 mmHg 61%
    22:00 +24°C° 0 mm 2 mps 680 mmHg 63%
    23:00 +24°C° 0 mm 2 mps 680 mmHg 64%

    Day after tomorrow, 25 July, Tuesday

    Time Temperature Precipitation Wind Pressure Humidity
    00:00 +23°C° 0 mm 2 mps 680 mmHg 65%
    01:00 +23°C° 0 mm 2 mps 680 mmHg 65%
    02:00 +23°C° 0 mm 2 mps 680 mmHg 65%
    03:00 +21°C° 0 mm 2 mps 680 mmHg 65%
    04:00 +23°C° 0 mm 2 mps 680 mmHg 62%
    05:00 +23°C° 0 mm 2 mps 680 mmHg 60%
    06:00 +24°C° 0 mm 2 mps 680 mmHg 57%
    07:00 +26°C° 0 mm 2 mps 681 mmHg 50%
    08:00 +28°C° 0 mm 2 mps 681 mmHg 43%
    09:00 +30°C° 0 mm 2 mps 681 mmHg 36%
    10:00 +31°C° 0 mm 3 mps 681 mmHg 33%
    11:00 +34°C° 0 mm 3 mps 681 mmHg 29%
    12:00 +35°C° 0 mm 3 mps 680 mmHg 26%
    13:00 +36°C° 0 mm 3 mps 680 mmHg 25%
    14:00 +36°C° 0 mm 3 mps 680 mmHg 24%
    15:00 +36°C° 0 mm 3 mps 679 mmHg 23%
    16:00 +35°C° 0 mm 3 mps 679 mmHg 26%
    17:00 +34°C° 0 mm 3 mps 679 mmHg 29%
    18:00 +34°C° 0 mm 3 mps 679 mmHg 32%
    19:00 +30°C° 0 mm 3 mps 679 mmHg 38%
    20:00 +28°C° 0 mm 2 mps 679 mmHg 44%
    21:00 +26°C° 0 mm 2 mps 679 mmHg 50%
    22:00 +26°C° 0 mm 2 mps 679 mmHg 50%
    23:00 +25°C° 0 mm 2 mps 679 mmHg 51%

    26 July, Wednesday

    Time Temperature Precipitation Wind Pressure Humidity
    00:00 +25°C° 0 mm 2 mps 680 mmHg 51%
    01:00 +25°C° 0 mm 2 mps 680 mmHg 52%
    02:00 +24°C° 0 mm 2 mps 680 mmHg 53%
    03:00 +24°C° 0 mm 2 mps 680 mmHg 53%
    04:00 +24°C° 0 mm 2 mps 680 mmHg 52%
    05:00 +25°C° 0 mm 1 mps 680 mmHg 50%
    06:00 +26°C° 0 mm 1 mps 680 mmHg 48%
    07:00 +28°C° 0 mm 1 mps 681 mmHg 42%
    08:00 +30°C° 0 mm 2 mps 681 mmHg 35%
    09:00 +32°C° 0 mm 2 mps 681 mmHg 28%
    10:00 +34°C° 0 mm 2 mps 681 mmHg 26%
    11:00 +35°C° 0 mm 2 mps 681 mmHg 23%
    12:00 +37°C° 0 mm 3 mps 681 mmHg 20%
    13:00 +37°C° 0 mm 3 mps 681 mmHg 20%
    14:00 +37°C° 0 mm 3 mps 681 mmHg 19%
    15:00 +38°C° 0 mm 3 mps 681 mmHg 18%
    16:00 +37°C° 0 mm 3 mps 681 mmHg 20%
    17:00 +36°C° 0 mm 3 mps 681 mmHg 21%
    18:00 +35°C° 0 mm 3 mps 680 mmHg 23%
    19:00 +32°C° 0 mm 2 mps 681 mmHg 28%
    20:00 +29°C° 0 mm 2 mps 681 mmHg 33%
    21:00 +27°C° 0 mm 2 mps 681 mmHg 38%
    22:00 +27°C° 0 mm 2 mps 681 mmHg 39%
    23:00 +26°C° 0 mm 2 mps 681 mmHg 40%

    27 July, Thursday

    Time Temperature Precipitation Wind Pressure Humidity
    00:00 +26°C° 0 mm 2 mps 682 mmHg 41%
    01:00 +26°C° 0 mm 2 mps 682 mmHg 41%
    02:00 +25°C° 0 mm 2 mps 682 mmHg 41%
    03:00 +25°C° 0 mm 2 mps 682 mmHg 41%
    04:00 +26°C° 0 mm 2 mps 682 mmHg 40%
    05:00 +26°C° 0 mm 1 mps 683 mmHg 38%
    06:00 +27°C° 0 mm 1 mps 683 mmHg 37%
    07:00 +29°C° 0 mm 1 mps 683 mmHg 32%
    08:00 +31°C° 0 mm 2 mps 684 mmHg 28%
    09:00 +34°C° 0 mm 2 mps 684 mmHg 24%
    10:00 +35°C° 0 mm 2 mps 684 mmHg 22%
    11:00 +37°C° 0 mm 3 mps 684 mmHg 20%
    12:00 +38°C° 0 mm 3 mps 684 mmHg 19%
    13:00 +38°C° 0 mm 3 mps 683 mmHg 18%
    14:00 +38°C° 0 mm 3 mps 683 mmHg 18%
    15:00 +39°C° 0 mm 3 mps 683 mmHg 18%
    16:00 +38°C° 0 mm 3 mps 683 mmHg 19%
    17:00 +37°C° 0 mm 3 mps 683 mmHg 21%
    18:00 +36°C° 0 mm 3 mps 683 mmHg 22%
    19:00 +34°C° 0 mm 3 mps 683 mmHg 27%
    20:00 +30°C° 0 mm 2 mps 683 mmHg 31%
    21:00 +28°C° 0 mm 2 mps 683 mmHg 36%
    22:00 +28°C° 0 mm 2 mps 683 mmHg 37%
    23:00 +27°C° 0 mm 2 mps 683 mmHg 38%

    28 July, Friday

    Time Temperature Precipitation Wind Pressure Humidity
    00:00 +26°C° 0 mm 2 mps 683 mmHg 39%
    01:00 +26°C° 0 mm 2 mps 683 mmHg 39%
    02:00 +26°C° 0 mm 2 mps 684 mmHg 40%
    03:00 +26°C° 0 mm 2 mps 684 mmHg 40%
    04:00 +26°C° 0 mm 2 mps 684 mmHg 39%
    05:00 +27°C° 0 mm 2 mps 684 mmHg 39%
    06:00 +27°C° 0 mm 2 mps 685 mmHg 38%
    07:00 +29°C° 0 mm 2 mps 685 mmHg 33%
    08:00 +31°C° 0 mm 2 mps 685 mmHg 29%
    09:00 +35°C° 0 mm 2 mps 686 mmHg 24%
    10:00 +36°C° 0 mm 3 mps 686 mmHg 22%
    11:00 +37°C° 0 mm 3 mps 685 mmHg 21%
    12:00 +38°C° 0 mm 4 mps 685 mmHg 19%
    13:00 +38°C° 0 mm 4 mps 685 mmHg 19%
    14:00 +40°C° 0 mm 4 mps 685 mmHg 19%
    15:00 +40°C° 0 mm 4 mps 685 mmHg 19%
    16:00 +38°C° 0 mm 4 mps 685 mmHg 21%
    17:00 +37°C° 0 mm 4 mps 685 mmHg 23%
    18:00 +36°C° 0 mm 4 mps 684 mmHg 26%
    19:00 +33°C° 0 mm 3 mps 685 mmHg 31%
    20:00 +30°C° 0 mm 3 mps 685 mmHg 36%
    21:00 +28°C° 0 mm 2 mps 685 mmHg 41%
    22:00 +27°C° 0 mm 2 mps 685 mmHg 42%
    23:00 +27°C° 0 mm 2 mps 685 mmHg 44%
    Show more